OBJECT A, 57424

Orbit data source: Space-Track

You're viewing an Uncataloged Satellite

Recently launched and/or uncataloged satellites may have evolving metadata. Metadata may include but not limited to: Owner, Maufacturer, Bus, Motor, and Mission.

OBJECT A, 57424 is a satellite owned by Yinhe (CN) in SSO that was launched on Sun, 23 Jul 2023 UTC via a CHANG ZHENG 2D launch vehicle from the Taiyaun Space Center, China (TSC). Unknown objects in Earth's orbit typically refer to objects detected orbiting the Earth but have not yet been identified or cataloged. These objects could be anything from previously untracked satellites, spent rocket stages, debris from satellite collisions, or even natural meteoroids temporarily captured by Earth's gravity.

Loading next visibility...
Identifier
57424, 2023-104A
Orbit
SSO
Country
Flag of CNCN / PRC
Related business
Manufacturer
Yinhe
Mission
Operational Commercial Radar Imaging
Bus & Motor
Unknown
Mass
~300 kg wet, ~300 kg dry
Launch date (UTC)
2023-07-23 (3 years ago)
Launch vehicle
CHANG ZHENG 2D
Launch site
Taiyaun Space Center, China (TSC)
Object type
Unknown
Shape & HBR
Box + 2 Pan, 0.8 m
Radar Cross Section
0.363 m², Large (>1 m²)

Expand to show TLE details & history
Last TLE update: 6 hours ago

TLE from 6 hours ago
0 OBJECT A
1 57424U 23104A   26168.58921646  .00008723  00000-0  25891-3 0  9994
2 57424  97.2695 236.8318 0008947 113.4340 246.7845 15.34998406162102
Epoch: 2026-06-17T14:08Z
TLE epoch observation values (Epoch: 2026-06-17T14:08:28.302Z)
Latitude
-0.00002°
Longitude
118.86915°
Altitude
466.457 km
Speed
7.632 km/s
True Right ascension
15h 47m 19s
True Declination
0° 00' 00"
Sunlit
Object was in full shadow at epoch
Visualization orbit readout
Latitude
Unknown
Longitude
Unknown
Altitude
Unknown
Speed
Unknown
Apparent Right ascension
Unknown
Apparent Declination
Unknown
Sunlit
N/A
Visualization observer readout
Local Sidereal Time
07:01:03
Azimuth
Unknown
Elevation
Unknown
Doppler factor
Unknown
Orbital elements
Apogee altitude
463.981 km
Perigee altitude
451.749 km
Semi-major axis
6,836.002 km
Eccentricity
0.00089
Inclination
97.2695°
RAAN
236.8318°
Arg. of periapsis
113.434°
True anomaly
246.69032°
Mean anomaly
246.7845°
Eccentric anomaly
246.7374°
Mean motion
3.84008 °/min
Orbital period
93.75 mins
BSTAR
0.00025891
Loading maneuver chart data...
Computing Atmospheric mass density...
Loading historical data...
Loading historical data...
Loading historical data...
Loading historical data...
Loading historical data...
Loading historical data...
Loading historical data...

Documentation

Showing up to 5 results
|